GEFSMA_prec_meanprecacc_138.txt.gz
Total_Precipitation_Accumulation
1.70 1.68 1.61 1.59 1.58 1.71 1.85 1.95 1.99 2.30 2.41 2.09 1.73 1.57 1.53 1.60 1.49 1.59 1.58 1.54 1.45 1.56 1.90 2.13 2.00 1.79 1.51 1.29 1.16 1.03 0.90 0.79 0.73 0.64 0.66 0.73 0.73 0.68 0.61 0.54 0.48 0.41 0.36
1.82 1.91 1.82 1.77 1.67 1.68 1.82 1.97 2.14 2.54 2.53 2.36 1.90 1.71 1.65 1.59 1.47 1.44 1.55 1.77 1.61 1.48 1.57 1.83 2.03 2.03 1.90 1.67 1.40 1.20 1.04 0.97 0.85 0.65 0.55 0.60 0.64 0.63 0.62 0.62 0.55 0.45 0.38
1.80 1.80 1.65 1.59 1.64 1.78 1.90 1.93 2.12 2.40 2.10 2.06 1.83 1.76 1.59 1.39 1.25 1.24 1.42 1.60 1.51 1.47 1.56 1.67 1.83 1.92 2.01 2.04 1.88 1.65 1.35 1.16 0.99 0.77 0.61 0.57 0.59 0.57 0.54 0.57 0.57 0.49 0.39
1.69 1.81 1.62 1.52 1.84 1.95 2.01 2.15 2.26 2.25 2.13 2.09 1.89 1.65 1.49 1.39 1.14 1.06 1.08 1.16 1.28 1.17 1.41 1.61 1.65 1.69 1.88 2.13 2.28 2.30 1.94 1.57 1.29 1.06 0.83 0.72 0.71 0.65 0.54 0.50 0.53 0.46 0.34
1.76 1.97 1.88 1.94 2.16 2.20 2.17 2.09 2.31 2.29 2.15 2.10 1.91 1.62 1.32 1.19 1.04 0.92 0.85 0.81 0.90 0.98 1.06 1.23 1.37 1.45 1.79 2.27 2.53 2.62 2.52 2.13 1.65 1.40 1.26 1.10 1.02 0.84 0.61 0.51 0.51 0.49 0.37
1.88 2.13 1.97 1.96 2.11 2.19 2.14 2.09 2.03 2.08 1.89 1.89 1.79 1.49 1.16 0.89 0.84 0.74 0.63 0.62 0.66 0.66 0.78 0.96 1.18 1.09 1.39 1.89 2.20 2.49 2.71 2.54 2.04 1.74 1.62 1.50 1.41 1.18 0.80 0.61 0.56 0.53 0.48
1.76 2.02 1.89 1.96 1.99 1.95 1.94 1.99 1.96 1.81 1.52 1.73 1.77 1.35 0.94 0.75 0.71 0.53 0.51 0.52 0.50 0.54 0.68 0.88 1.06 1.06 1.03 1.17 1.46 1.79 2.22 2.42 2.22 1.93 1.81 1.71 1.73 1.59 1.12 0.84 0.73 0.61 0.61
1.80 1.85 1.87 1.85 1.87 1.87 1.77 1.75 1.81 1.62 1.36 1.52 1.60 1.51 0.98 0.75 0.62 0.48 0.54 0.60 0.62 0.69 0.72 0.79 0.93 1.05 1.06 1.26 1.18 1.15 1.52 2.04 2.35 2.31 2.06 1.73 1.60 1.53 1.34 1.18 1.01 0.84 0.81
1.93 1.91 1.84 1.72 1.58 1.52 1.45 1.49 1.57 1.53 1.37 1.35 1.54 1.70 1.32 0.94 0.83 0.65 0.64 0.65 0.74 0.82 0.80 0.83 0.88 1.01 1.11 1.32 1.44 1.31 1.18 1.43 1.98 2.49 2.49 2.03 1.59 1.40 1.37 1.35 1.31 1.15 1.04
1.71 1.54 1.40 1.38 1.33 1.30 1.21 1.14 1.25 1.29 1.20 1.15 1.27 1.41 1.48 1.43 1.31 0.85 0.62 0.59 0.70 0.80 0.87 0.82 0.76 0.86 1.02 1.21 1.42 1.46 1.16 1.06 1.31 1.97 2.37 2.26 1.89 1.52 1.37 1.40 1.63 1.59 1.28
1.31 1.12 1.03 1.03 1.03 1.02 0.96 0.92 0.94 0.95 0.97 0.98 1.11 1.27 1.36 1.41 1.40 1.26 0.89 0.83 0.84 0.77 0.81 0.81 0.83 0.84 0.88 1.08 1.34 1.29 1.27 1.17 1.11 1.25 1.58 1.84 1.93 1.76 1.64 1.78 2.10 2.21 1.95
0.88 0.75 0.70 0.75 0.81 0.87 0.85 0.82 0.82 0.81 0.87 0.98 1.01 1.11 1.24 1.23 1.24 1.31 1.10 0.98 0.93 0.82 0.82 0.86 0.86 0.93 0.92 1.02 1.05 1.24 1.23 1.03 0.95 0.95 1.06 1.27 1.49 1.58 1.63 1.83 2.24 2.57 2.64
0.69 0.63 0.60 0.63 0.71 0.77 0.73 0.69 0.70 0.78 0.90 0.99 0.98 1.04 1.16 1.19 1.22 1.32 1.27 1.16 1.08 1.03 1.05 1.04 0.88 0.79 0.72 0.82 0.91 0.96 0.88 0.77 0.72 0.70 0.73 0.82 0.96 1.17 1.40 1.63 1.96 2.31 2.57
0.67 0.68 0.61 0.60 0.60 0.63 0.63 0.66 0.66 0.73 0.85 0.93 0.89 1.03 1.13 1.19 1.32 1.44 1.47 1.43 1.28 1.16 1.14 1.09 0.94 0.81 0.77 0.80 0.78 0.76 0.71 0.64 0.53 0.51 0.53 0.55 0.63 0.77 0.99 1.18 1.43 1.71 1.94
0.57 0.65 0.64 0.63 0.63 0.66 0.69 0.76 0.80 0.88 1.03 1.09 1.13 1.24 1.27 1.23 1.27 1.35 1.41 1.45 1.48 1.32 1.15 1.09 0.99 0.86 0.86 0.90 0.82 0.74 0.80 0.64 0.46 0.41 0.40 0.40 0.47 0.58 0.64 0.71 0.86 1.06 1.26
0.47 0.56 0.62 0.63 0.65 0.64 0.68 0.79 0.97 1.13 1.23 1.27 1.30 1.37 1.42 1.36 1.37 1.43 1.42 1.47 1.56 1.47 1.25 1.06 1.00 0.92 0.92 0.83 0.82 0.78 0.73 0.62 0.50 0.43 0.37 0.35 0.36 0.40 0.41 0.44 0.53 0.65 0.81
0.43 0.47 0.51 0.56 0.58 0.61 0.65 0.74 0.86 1.05 1.16 1.18 1.20 1.26 1.27 1.27 1.25 1.24 1.30 1.42 1.55 1.54 1.32 1.12 1.15 1.17 1.13 1.02 0.95 0.88 0.75 0.67 0.55 0.47 0.40 0.37 0.33 0.33 0.34 0.36 0.41 0.46 0.55
0.42 0.44 0.44 0.45 0.45 0.49 0.57 0.68 0.79 0.90 0.98 1.01 1.00 1.00 0.97 0.96 0.99 0.99 1.06 1.14 1.24 1.41 1.38 1.26 1.32 1.38 1.36 1.26 1.20 1.12 0.93 0.72 0.61 0.54 0.46 0.43 0.39 0.36 0.33 0.35 0.38 0.44 0.50
0.34 0.35 0.37 0.40 0.46 0.58 0.68 0.74 0.77 0.80 0.81 0.84 0.91 0.94 0.88 0.84 0.86 0.88 0.91 0.90 0.94 1.12 1.24 1.27 1.32 1.42 1.43 1.42 1.29 1.15 1.08 0.95 0.74 0.64 0.56 0.50 0.45 0.41 0.38 0.36 0.38 0.43 0.48
0.30 0.33 0.38 0.43 0.51 0.58 0.68 0.74 0.74 0.72 0.67 0.63 0.66 0.72 0.74 0.72 0.72 0.77 0.81 0.82 0.84 0.98 1.12 1.21 1.30 1.46 1.49 1.43 1.38 1.24 1.22 1.12 1.00 0.84 0.73 0.60 0.58 0.54 0.48 0.43 0.39 0.39 0.48
0.30 0.36 0.41 0.46 0.49 0.49 0.50 0.47 0.47 0.47 0.45 0.42 0.40 0.43 0.49 0.54 0.57 0.60 0.62 0.74 0.83 0.88 0.96 1.03 1.10 1.30 1.53 1.58 1.39 1.29 1.35 1.34 1.21 1.03 0.92 0.74 0.63 0.57 0.53 0.48 0.45 0.41 0.43
0.34 0.38 0.42 0.46 0.45 0.38 0.42 0.33 0.24 0.23 0.28 0.32 0.36 0.38 0.39 0.40 0.44 0.45 0.46 0.53 0.67 0.77 0.82 0.89 0.97 1.13 1.36 1.52 1.57 1.53 1.46 1.37 1.35 1.23 1.13 1.05 0.88 0.78 0.69 0.59 0.47 0.44 0.42
0.35 0.36 0.35 0.34 0.35 0.39 0.36 0.29 0.19 0.17 0.21 0.25 0.30 0.34 0.30 0.30 0.35 0.37 0.38 0.37 0.40 0.49 0.62 0.76 0.85 0.91 1.06 1.27 1.46 1.46 1.51 1.54 1.55 1.54 1.50 1.48 1.25 1.06 0.89 0.75 0.59 0.45 0.42
0.44 0.42 0.38 0.34 0.38 0.38 0.33 0.27 0.22 0.20 0.24 0.27 0.30 0.33 0.33 0.29 0.29 0.34 0.39 0.38 0.36 0.35 0.38 0.48 0.61 0.77 0.96 1.18 1.45 1.46 1.45 1.53 1.62 1.67 1.67 1.69 1.53 1.35 1.15 0.99 0.80 0.60 0.48
0.56 0.51 0.46 0.46 0.47 0.47 0.39 0.31 0.26 0.26 0.32 0.34 0.35 0.34 0.33 0.32 0.30 0.27 0.33 0.39 0.41 0.40 0.37 0.38 0.44 0.64 0.87 1.00 1.23 1.36 1.34 1.33 1.28 1.25 1.34 1.50 1.55 1.51 1.40 1.20 0.97 0.77 0.60
0.69 0.62 0.57 0.58 0.61 0.66 0.65 0.50 0.43 0.42 0.45 0.46 0.52 0.48 0.39 0.33 0.31 0.28 0.32 0.38 0.40 0.41 0.46 0.44 0.44 0.49 0.63 0.81 0.96 1.10 1.20 1.22 1.12 1.02 0.88 0.96 1.15 1.34 1.50 1.40 1.19 0.99 0.83

GEFSMA_prec_meanprecacc_144.txt.gz
Total_Precipitation_Accumulation
1.76 1.74 1.68 1.64 1.62 1.74 1.88 1.99 2.04 2.33 2.44 2.11 1.74 1.59 1.55 1.62 1.58 1.63 1.60 1.55 1.46 1.57 1.91 2.14 2.01 1.80 1.53 1.31 1.17 1.05 0.91 0.80 0.74 0.65 0.67 0.74 0.74 0.69 0.62 0.55 0.49 0.42 0.38
1.89 1.97 1.87 1.81 1.71 1.70 1.84 2.00 2.16 2.57 2.56 2.37 1.92 1.73 1.68 1.62 1.50 1.47 1.59 1.80 1.62 1.49 1.59 1.84 2.05 2.04 1.92 1.69 1.41 1.21 1.06 0.98 0.86 0.65 0.56 0.61 0.65 0.64 0.63 0.62 0.56 0.46 0.39
1.86 1.86 1.69 1.62 1.67 1.80 1.93 1.95 2.14 2.42 2.12 2.08 1.85 1.78 1.60 1.41 1.27 1.26 1.45 1.64 1.53 1.48 1.57 1.69 1.85 1.93 2.03 2.05 1.90 1.68 1.37 1.17 1.00 0.78 0.62 0.58 0.60 0.58 0.56 0.58 0.58 0.50 0.40
1.74 1.87 1.68 1.56 1.87 1.97 2.03 2.17 2.28 2.27 2.16 2.11 1.91 1.67 1.50 1.40 1.15 1.07 1.10 1.19 1.32 1.20 1.44 1.63 1.66 1.71 1.90 2.15 2.30 2.31 1.97 1.59 1.31 1.08 0.86 0.74 0.72 0.66 0.55 0.52 0.54 0.46 0.35
1.80 2.02 1.95 2.01 2.19 2.23 2.20 2.11 2.34 2.31 2.19 2.13 1.92 1.64 1.33 1.19 1.04 0.93 0.86 0.83 0.93 1.01 1.10 1.25 1.38 1.46 1.80 2.29 2.55 2.65 2.55 2.16 1.67 1.42 1.29 1.13 1.04 0.86 0.63 0.54 0.53 0.50 0.39
1.91 2.18 2.02 2.00 2.16 2.23 2.19 2.14 2.09 2.12 1.94 1.92 1.81 1.51 1.18 0.90 0.85 0.74 0.64 0.63 0.67 0.67 0.80 0.97 1.20 1.09 1.40 1.90 2.20 2.51 2.74 2.58 2.08 1.77 1.66 1.54 1.44 1.21 0.82 0.63 0.58 0.55 0.51
1.82 2.08 1.96 2.03 2.05 1.99 2.00 2.05 2.03 1.86 1.56 1.76 1.79 1.38 0.97 0.76 0.73 0.54 0.52 0.52 0.51 0.54 0.69 0.89 1.08 1.08 1.04 1.17 1.47 1.80 2.23 2.44 2.25 1.96 1.83 1.73 1.76 1.62 1.15 0.86 0.75 0.63 0.63
1.86 1.89 1.93 1.91 1.92 1.94 1.85 1.82 1.88 1.68 1.40 1.55 1.63 1.55 1.02 0.78 0.64 0.49 0.55 0.60 0.62 0.69 0.72 0.79 0.94 1.06 1.07 1.28 1.19 1.15 1.53 2.05 2.37 2.32 2.07 1.75 1.62 1.55 1.35 1.20 1.03 0.86 0.83
1.98 1.96 1.89 1.77 1.63 1.56 1.51 1.55 1.62 1.58 1.42 1.39 1.57 1.74 1.37 0.98 0.86 0.67 0.65 0.66 0.75 0.83 0.80 0.83 0.88 1.02 1.12 1.34 1.45 1.32 1.19 1.44 1.99 2.50 2.50 2.05 1.61 1.42 1.38 1.36 1.33 1.17 1.06
1.77 1.59 1.44 1.41 1.37 1.35 1.27 1.20 1.29 1.32 1.24 1.19 1.31 1.43 1.51 1.47 1.36 0.89 0.64 0.60 0.70 0.81 0.88 0.82 0.77 0.86 1.03 1.22 1.43 1.47 1.16 1.06 1.31 1.98 2.38 2.27 1.91 1.53 1.38 1.41 1.65 1.61 1.30
1.38 1.16 1.06 1.07 1.07 1.07 1.02 0.98 0.99 0.98 1.00 1.02 1.14 1.28 1.38 1.43 1.43 1.29 0.91 0.84 0.85 0.78 0.81 0.81 0.83 0.84 0.89 1.09 1.35 1.29 1.27 1.17 1.12 1.26 1.59 1.85 1.94 1.77 1.65 1.79 2.11 2.23 1.97
0.95 0.80 0.72 0.78 0.85 0.92 0.90 0.86 0.86 0.84 0.90 1.01 1.03 1.13 1.26 1.25 1.25 1.33 1.12 1.01 0.95 0.83 0.83 0.86 0.86 0.93 0.93 1.03 1.06 1.24 1.23 1.03 0.95 0.95 1.06 1.27 1.49 1.58 1.63 1.84 2.25 2.59 2.65
0.73 0.67 0.64 0.67 0.74 0.82 0.78 0.73 0.73 0.81 0.93 1.01 0.99 1.05 1.17 1.20 1.23 1.33 1.29 1.18 1.10 1.04 1.06 1.05 0.88 0.79 0.72 0.83 0.91 0.96 0.88 0.77 0.72 0.70 0.73 0.82 0.96 1.17 1.40 1.63 1.97 2.32 2.57
0.72 0.73 0.66 0.64 0.64 0.67 0.66 0.70 0.69 0.75 0.87 0.95 0.90 1.03 1.13 1.19 1.33 1.46 1.48 1.45 1.31 1.18 1.14 1.10 0.94 0.81 0.77 0.80 0.78 0.76 0.71 0.64 0.53 0.51 0.53 0.55 0.63 0.77 0.99 1.18 1.43 1.71 1.94
0.64 0.71 0.67 0.66 0.67 0.70 0.73 0.80 0.84 0.92 1.06 1.11 1.15 1.25 1.28 1.24 1.28 1.36 1.42 1.47 1.50 1.33 1.16 1.10 1.00 0.87 0.86 0.90 0.82 0.74 0.80 0.64 0.46 0.41 0.40 0.40 0.47 0.58 0.64 0.71 0.86 1.06 1.26
0.55 0.64 0.67 0.67 0.68 0.67 0.71 0.82 1.00 1.16 1.26 1.30 1.32 1.40 1.44 1.37 1.38 1.43 1.43 1.48 1.56 1.48 1.25 1.07 1.00 0.93 0.92 0.83 0.83 0.78 0.73 0.62 0.50 0.43 0.37 0.35 0.36 0.40 0.41 0.44 0.53 0.65 0.81
0.52 0.55 0.56 0.59 0.62 0.64 0.68 0.77 0.88 1.07 1.18 1.20 1.22 1.28 1.29 1.28 1.27 1.25 1.31 1.43 1.55 1.54 1.32 1.12 1.16 1.18 1.14 1.02 0.96 0.88 0.75 0.67 0.55 0.47 0.40 0.37 0.33 0.33 0.34 0.36 0.41 0.46 0.55
0.48 0.49 0.48 0.48 0.48 0.52 0.60 0.69 0.80 0.91 1.00 1.02 1.02 1.03 0.99 0.98 1.01 1.00 1.08 1.15 1.25 1.42 1.39 1.26 1.33 1.38 1.36 1.27 1.20 1.12 0.93 0.72 0.61 0.54 0.46 0.43 0.39 0.36 0.33 0.35 0.38 0.44 0.50
0.40 0.41 0.41 0.43 0.49 0.62 0.71 0.76 0.79 0.81 0.83 0.86 0.93 0.98 0.92 0.87 0.87 0.90 0.93 0.91 0.96 1.13 1.25 1.28 1.33 1.43 1.44 1.43 1.30 1.16 1.08 0.96 0.74 0.64 0.56 0.50 0.45 0.41 0.38 0.36 0.38 0.43 0.48
0.35 0.38 0.42 0.47 0.54 0.62 0.71 0.76 0.77 0.75 0.70 0.65 0.69 0.75 0.76 0.74 0.73 0.80 0.83 0.84 0.87 1.00 1.14 1.23 1.31 1.48 1.50 1.44 1.39 1.24 1.22 1.12 1.00 0.84 0.73 0.60 0.59 0.54 0.48 0.43 0.39 0.39 0.48
0.35 0.40 0.45 0.50 0.52 0.53 0.53 0.51 0.51 0.50 0.48 0.45 0.43 0.46 0.52 0.57 0.59 0.62 0.64 0.76 0.84 0.90 0.97 1.04 1.11 1.31 1.53 1.58 1.40 1.30 1.36 1.35 1.22 1.04 0.92 0.74 0.63 0.57 0.53 0.49 0.45 0.41 0.43
0.39 0.44 0.47 0.52 0.51 0.41 0.45 0.37 0.28 0.28 0.34 0.37 0.41 0.43 0.43 0.43 0.45 0.46 0.46 0.54 0.68 0.77 0.82 0.90 0.98 1.14 1.37 1.54 1.59 1.54 1.47 1.39 1.36 1.24 1.14 1.05 0.89 0.78 0.70 0.60 0.49 0.45 0.43
0.44 0.46 0.45 0.44 0.44 0.47 0.43 0.34 0.23 0.21 0.26 0.29 0.35 0.39 0.33 0.31 0.37 0.38 0.40 0.39 0.41 0.50 0.62 0.77 0.86 0.92 1.07 1.30 1.50 1.49 1.55 1.58 1.57 1.55 1.53 1.50 1.26 1.06 0.89 0.75 0.60 0.46 0.43
0.57 0.55 0.50 0.47 0.50 0.48 0.42 0.32 0.25 0.22 0.27 0.30 0.33 0.36 0.37 0.34 0.33 0.39 0.44 0.42 0.39 0.38 0.42 0.51 0.63 0.79 0.98 1.22 1.49 1.49 1.49 1.58 1.65 1.69 1.71 1.72 1.54 1.37 1.16 0.99 0.81 0.61 0.49
0.67 0.62 0.57 0.59 0.59 0.58 0.50 0.36 0.30 0.29 0.35 0.37 0.38 0.38 0.38 0.37 0.36 0.33 0.39 0.45 0.47 0.47 0.43 0.45 0.50 0.68 0.90 1.03 1.26 1.39 1.36 1.36 1.30 1.27 1.38 1.55 1.58 1.54 1.42 1.20 0.97 0.77 0.60
0.83 0.77 0.73 0.75 0.77 0.82 0.81 0.61 0.51 0.48 0.50 0.50 0.57 0.54 0.44 0.39 0.37 0.35 0.37 0.44 0.45 0.47 0.51 0.50 0.48 0.53 0.65 0.83 0.98 1.12 1.22 1.26 1.15 1.05 0.90 1.00 1.19 1.38 1.52 1.40 1.19 0.99 0.84

GEFSMA_prec_meanprecacc_150.txt.gz
Total_Precipitation_Accumulation
1.78 1.76 1.69 1.65 1.63 1.74 1.89 2.01 2.07 2.37 2.49 2.18 1.81 1.69 1.66 1.72 1.66 1.67 1.62 1.57 1.49 1.59 1.93 2.16 2.03 1.81 1.53 1.32 1.18 1.05 0.92 0.81 0.75 0.65 0.67 0.75 0.75 0.70 0.62 0.56 0.50 0.43 0.38
1.91 1.99 1.89 1.85 1.73 1.72 1.87 2.03 2.19 2.61 2.61 2.44 2.01 1.84 1.76 1.72 1.58 1.52 1.61 1.81 1.64 1.52 1.62 1.87 2.08 2.07 1.94 1.70 1.42 1.22 1.07 0.99 0.86 0.66 0.56 0.62 0.66 0.65 0.64 0.63 0.57 0.47 0.39
1.88 1.88 1.72 1.66 1.70 1.83 1.96 1.99 2.18 2.46 2.16 2.13 1.91 1.84 1.66 1.49 1.33 1.29 1.46 1.65 1.54 1.50 1.60 1.71 1.87 1.95 2.04 2.07 1.91 1.69 1.38 1.19 1.02 0.79 0.63 0.59 0.62 0.59 0.56 0.59 0.59 0.51 0.41
1.78 1.90 1.71 1.59 1.90 2.00 2.06 2.20 2.30 2.30 2.19 2.15 1.94 1.71 1.53 1.43 1.18 1.09 1.12 1.19 1.33 1.20 1.45 1.65 1.69 1.73 1.93 2.17 2.33 2.34 2.00 1.62 1.33 1.10 0.87 0.75 0.73 0.68 0.56 0.53 0.55 0.47 0.35
1.84 2.07 1.98 2.03 2.22 2.26 2.23 2.14 2.36 2.33 2.20 2.16 1.96 1.67 1.37 1.23 1.07 0.95 0.88 0.83 0.94 1.02 1.10 1.26 1.40 1.48 1.82 2.32 2.58 2.69 2.59 2.19 1.70 1.44 1.31 1.14 1.06 0.88 0.66 0.56 0.55 0.51 0.40
1.95 2.23 2.05 2.02 2.17 2.25 2.22 2.18 2.13 2.15 1.96 1.95 1.85 1.55 1.23 0.95 0.88 0.77 0.65 0.64 0.68 0.67 0.80 0.97 1.20 1.10 1.42 1.91 2.22 2.53 2.78 2.62 2.11 1.80 1.69 1.57 1.47 1.23 0.85 0.65 0.61 0.58 0.53
1.85 2.11 1.99 2.05 2.06 2.01 2.02 2.07 2.06 1.90 1.59 1.79 1.82 1.41 1.02 0.81 0.77 0.57 0.53 0.54 0.53 0.55 0.69 0.89 1.08 1.08 1.05 1.18 1.48 1.82 2.26 2.47 2.28 1.98 1.86 1.76 1.79 1.65 1.17 0.88 0.77 0.65 0.65
1.89 1.91 1.95 1.93 1.94 1.96 1.87 1.83 1.89 1.71 1.42 1.56 1.65 1.57 1.06 0.81 0.66 0.51 0.56 0.62 0.65 0.70 0.73 0.80 0.94 1.06 1.08 1.29 1.19 1.17 1.55 2.08 2.39 2.34 2.09 1.76 1.63 1.57 1.37 1.23 1.06 0.89 0.86
2.02 1.99 1.91 1.79 1.65 1.58 1.52 1.56 1.63 1.60 1.43 1.40 1.58 1.75 1.38 1.00 0.87 0.67 0.65 0.67 0.76 0.85 0.82 0.84 0.90 1.04 1.13 1.35 1.46 1.32 1.21 1.45 2.00 2.52 2.52 2.06 1.62 1.43 1.39 1.37 1.34 1.19 1.08
1.82 1.62 1.47 1.46 1.42 1.37 1.29 1.20 1.29 1.33 1.25 1.20 1.31 1.44 1.51 1.48 1.37 0.90 0.64 0.61 0.72 0.82 0.89 0.83 0.78 0.87 1.04 1.22 1.43 1.47 1.17 1.06 1.32 2.00 2.40 2.29 1.92 1.54 1.38 1.41 1.66 1.62 1.31
1.43 1.20 1.11 1.12 1.11 1.09 1.05 1.00 1.00 0.99 1.01 1.02 1.14 1.29 1.38 1.44 1.43 1.30 0.92 0.85 0.86 0.79 0.81 0.81 0.84 0.85 0.89 1.10 1.35 1.29 1.28 1.17 1.12 1.26 1.59 1.86 1.94 1.78 1.65 1.80 2.12 2.24 1.98
1.02 0.85 0.77 0.82 0.88 0.94 0.92 0.88 0.88 0.86 0.91 1.02 1.04 1.13 1.27 1.25 1.25 1.34 1.13 1.01 0.96 0.84 0.83 0.86 0.87 0.94 0.93 1.03 1.06 1.25 1.24 1.04 0.95 0.95 1.06 1.28 1.49 1.58 1.63 1.84 2.25 2.59 2.67
0.78 0.72 0.68 0.72 0.77 0.84 0.79 0.75 0.74 0.82 0.94 1.03 1.00 1.05 1.17 1.20 1.23 1.34 1.29 1.19 1.11 1.05 1.07 1.05 0.88 0.79 0.72 0.83 0.91 0.96 0.88 0.78 0.72 0.70 0.74 0.83 0.96 1.17 1.40 1.63 1.97 2.32 2.57
0.77 0.77 0.70 0.68 0.67 0.69 0.67 0.72 0.71 0.76 0.88 0.96 0.91 1.04 1.14 1.20 1.34 1.47 1.49 1.46 1.32 1.20 1.17 1.12 0.95 0.81 0.77 0.80 0.78 0.76 0.71 0.64 0.53 0.51 0.53 0.55 0.63 0.77 0.99 1.18 1.43 1.71 1.94
0.71 0.78 0.74 0.71 0.70 0.72 0.74 0.81 0.85 0.93 1.07 1.12 1.16 1.26 1.28 1.24 1.29 1.37 1.43 1.47 1.51 1.35 1.18 1.10 1.00 0.87 0.86 0.90 0.82 0.75 0.80 0.64 0.46 0.41 0.40 0.40 0.47 0.58 0.64 0.71 0.86 1.06 1.26
0.62 0.73 0.75 0.73 0.72 0.70 0.74 0.84 1.01 1.17 1.28 1.31 1.33 1.40 1.44 1.38 1.38 1.44 1.43 1.49 1.57 1.48 1.25 1.07 1.01 0.93 0.93 0.83 0.83 0.78 0.73 0.63 0.51 0.43 0.38 0.35 0.36 0.40 0.41 0.44 0.53 0.65 0.81
0.57 0.61 0.63 0.65 0.67 0.67 0.71 0.78 0.89 1.08 1.20 1.22 1.23 1.28 1.29 1.28 1.27 1.25 1.32 1.44 1.56 1.55 1.33 1.13 1.16 1.18 1.14 1.03 0.96 0.88 0.75 0.67 0.55 0.47 0.40 0.37 0.33 0.33 0.34 0.36 0.41 0.46 0.55
0.54 0.56 0.55 0.54 0.53 0.56 0.64 0.72 0.82 0.92 1.01 1.03 1.02 1.04 1.00 0.99 1.02 1.01 1.08 1.16 1.26 1.43 1.40 1.28 1.35 1.39 1.37 1.27 1.21 1.12 0.93 0.72 0.61 0.54 0.46 0.43 0.39 0.36 0.33 0.35 0.38 0.44 0.50
0.48 0.48 0.48 0.49 0.53 0.65 0.74 0.79 0.81 0.83 0.84 0.87 0.95 1.01 0.94 0.89 0.88 0.91 0.94 0.92 0.97 1.14 1.26 1.30 1.35 1.45 1.45 1.44 1.31 1.16 1.09 0.96 0.75 0.64 0.56 0.50 0.45 0.41 0.38 0.36 0.38 0.43 0.48
0.41 0.44 0.47 0.52 0.59 0.66 0.74 0.79 0.80 0.77 0.72 0.68 0.73 0.79 0.80 0.77 0.76 0.82 0.85 0.86 0.90 1.02 1.16 1.25 1.33 1.49 1.52 1.45 1.40 1.25 1.23 1.13 1.01 0.84 0.73 0.61 0.59 0.54 0.48 0.43 0.39 0.39 0.48
0.40 0.45 0.50 0.54 0.57 0.59 0.58 0.55 0.56 0.56 0.54 0.51 0.48 0.51 0.57 0.62 0.64 0.66 0.68 0.81 0.89 0.94 0.99 1.06 1.12 1.31 1.54 1.59 1.40 1.30 1.36 1.35 1.22 1.04 0.93 0.74 0.63 0.58 0.54 0.49 0.45 0.41 0.44
0.45 0.50 0.54 0.58 0.58 0.47 0.52 0.45 0.37 0.37 0.42 0.45 0.48 0.49 0.48 0.48 0.50 0.50 0.50 0.57 0.70 0.80 0.84 0.91 0.99 1.15 1.37 1.55 1.60 1.55 1.48 1.39 1.36 1.24 1.14 1.06 0.89 0.79 0.70 0.60 0.49 0.46 0.43
0.54 0.55 0.54 0.53 0.53 0.56 0.55 0.45 0.32 0.30 0.34 0.37 0.42 0.44 0.38 0.36 0.42 0.43 0.45 0.44 0.45 0.53 0.65 0.79 0.87 0.93 1.09 1.31 1.52 1.50 1.56 1.58 1.57 1.56 1.54 1.50 1.26 1.06 0.89 0.75 0.60 0.46 0.43
0.70 0.68 0.64 0.60 0.63 0.60 0.55 0.42 0.34 0.30 0.33 0.36 0.39 0.41 0.41 0.37 0.36 0.43 0.49 0.47 0.43 0.42 0.46 0.55 0.66 0.82 1.03 1.26 1.52 1.52 1.52 1.60 1.67 1.70 1.72 1.73 1.55 1.37 1.16 0.99 0.81 0.61 0.49
0.84 0.76 0.70 0.71 0.70 0.69 0.64 0.49 0.42 0.38 0.42 0.43 0.45 0.43 0.43 0.40 0.40 0.38 0.44 0.49 0.51 0.50 0.47 0.50 0.54 0.72 0.95 1.08 1.30 1.42 1.40 1.41 1.34 1.29 1.41 1.58 1.61 1.56 1.44 1.21 0.98 0.78 0.61
1.04 1.01 0.93 0.91 0.93 0.99 1.00 0.79 0.68 0.62 0.63 0.61 0.66 0.61 0.51 0.45 0.44 0.43 0.45 0.51 0.51 0.52 0.59 0.56 0.54 0.57 0.69 0.87 1.01 1.15 1.25 1.29 1.18 1.07 0.92 1.04 1.22 1.42 1.54 1.42 1.20 1.00 0.85

GEFSMA_prec_meanprecacc_156.txt.gz
Total_Precipitation_Accumulation
1.79 1.77 1.69 1.65 1.63 1.74 1.90 2.03 2.09 2.40 2.53 2.20 1.82 1.71 1.68 1.74 1.67 1.68 1.62 1.58 1.50 1.61 1.96 2.19 2.05 1.83 1.56 1.34 1.19 1.08 0.95 0.85 0.76 0.66 0.68 0.76 0.76 0.71 0.63 0.57 0.51 0.44 0.39
1.91 2.00 1.89 1.85 1.73 1.72 1.88 2.05 2.22 2.64 2.64 2.45 2.02 1.86 1.78 1.73 1.59 1.53 1.62 1.83 1.67 1.56 1.66 1.92 2.12 2.10 1.96 1.72 1.45 1.25 1.10 1.03 0.90 0.68 0.58 0.64 0.68 0.66 0.65 0.64 0.58 0.48 0.40
1.89 1.89 1.73 1.66 1.71 1.84 1.98 2.02 2.20 2.47 2.19 2.16 1.93 1.85 1.67 1.50 1.34 1.30 1.47 1.66 1.56 1.53 1.64 1.75 1.90 1.98 2.07 2.10 1.94 1.73 1.42 1.22 1.05 0.82 0.65 0.60 0.64 0.61 0.58 0.60 0.59 0.52 0.42
1.79 1.91 1.72 1.60 1.90 2.01 2.08 2.23 2.32 2.31 2.22 2.18 1.97 1.73 1.55 1.45 1.19 1.10 1.12 1.20 1.34 1.22 1.47 1.68 1.72 1.76 1.96 2.20 2.37 2.39 2.05 1.66 1.37 1.13 0.90 0.77 0.77 0.71 0.59 0.55 0.57 0.49 0.37
1.86 2.10 2.00 2.05 2.23 2.28 2.25 2.16 2.37 2.34 2.22 2.18 1.98 1.70 1.41 1.26 1.08 0.95 0.89 0.85 0.95 1.03 1.10 1.28 1.43 1.50 1.85 2.34 2.61 2.73 2.63 2.24 1.74 1.47 1.34 1.18 1.10 0.91 0.69 0.59 0.58 0.54 0.42
1.97 2.26 2.07 2.03 2.19 2.28 2.25 2.20 2.16 2.17 1.98 1.97 1.87 1.57 1.26 0.98 0.90 0.78 0.66 0.66 0.70 0.68 0.80 0.98 1.21 1.12 1.44 1.94 2.26 2.57 2.82 2.66 2.15 1.84 1.73 1.62 1.52 1.27 0.88 0.69 0.65 0.62 0.56
1.88 2.15 2.01 2.07 2.08 2.04 2.05 2.10 2.09 1.92 1.61 1.82 1.84 1.42 1.03 0.84 0.79 0.59 0.54 0.56 0.55 0.57 0.70 0.90 1.08 1.09 1.06 1.21 1.50 1.85 2.31 2.52 2.32 2.02 1.90 1.80 1.83 1.68 1.20 0.91 0.80 0.68 0.68
1.94 1.96 1.98 1.94 1.96 1.98 1.90 1.86 1.91 1.73 1.45 1.59 1.67 1.59 1.07 0.83 0.68 0.52 0.57 0.64 0.68 0.73 0.75 0.81 0.95 1.07 1.09 1.30 1.21 1.19 1.60 2.13 2.44 2.38 2.12 1.79 1.66 1.60 1.40 1.25 1.08 0.91 0.88
2.08 2.04 1.95 1.83 1.68 1.60 1.55 1.58 1.65 1.62 1.45 1.42 1.60 1.77 1.39 1.00 0.88 0.68 0.66 0.68 0.78 0.88 0.83 0.85 0.90 1.04 1.14 1.36 1.47 1.34 1.23 1.48 2.04 2.56 2.55 2.09 1.64 1.44 1.40 1.39 1.36 1.21 1.10
1.86 1.66 1.51 1.50 1.46 1.41 1.33 1.24 1.32 1.35 1.27 1.21 1.32 1.44 1.51 1.48 1.37 0.90 0.64 0.61 0.72 0.83 0.90 0.84 0.78 0.87 1.04 1.23 1.45 1.48 1.18 1.08 1.34 2.02 2.42 2.31 1.94 1.55 1.40 1.43 1.67 1.64 1.32
1.48 1.23 1.15 1.17 1.15 1.13 1.08 1.03 1.03 1.01 1.02 1.03 1.15 1.30 1.39 1.44 1.44 1.30 0.93 0.86 0.86 0.79 0.82 0.82 0.84 0.85 0.90 1.10 1.35 1.30 1.28 1.18 1.13 1.27 1.60 1.87 1.96 1.79 1.66 1.81 2.13 2.25 1.99
1.08 0.89 0.81 0.85 0.91 0.97 0.94 0.90 0.90 0.88 0.93 1.03 1.05 1.14 1.28 1.26 1.25 1.34 1.13 1.02 0.97 0.85 0.83 0.87 0.87 0.94 0.94 1.03 1.06 1.25 1.24 1.04 0.96 0.96 1.06 1.28 1.50 1.59 1.64 1.85 2.26 2.60 2.67
0.83 0.76 0.71 0.74 0.79 0.86 0.81 0.78 0.77 0.85 0.97 1.05 1.02 1.07 1.18 1.21 1.24 1.34 1.30 1.19 1.12 1.05 1.07 1.06 0.90 0.81 0.73 0.83 0.91 0.97 0.89 0.78 0.72 0.70 0.74 0.83 0.96 1.17 1.40 1.64 1.97 2.32 2.57
0.81 0.82 0.75 0.71 0.69 0.70 0.69 0.73 0.72 0.77 0.89 0.98 0.93 1.05 1.15 1.20 1.34 1.47 1.50 1.47 1.32 1.20 1.17 1.12 0.97 0.83 0.78 0.80 0.78 0.76 0.71 0.64 0.53 0.51 0.53 0.55 0.63 0.77 0.99 1.18 1.43 1.71 1.94
0.79 0.86 0.81 0.76 0.73 0.74 0.76 0.83 0.87 0.95 1.08 1.13 1.17 1.27 1.29 1.25 1.29 1.37 1.43 1.48 1.52 1.35 1.18 1.10 1.00 0.87 0.87 0.90 0.83 0.75 0.80 0.64 0.46 0.41 0.40 0.40 0.47 0.58 0.64 0.71 0.86 1.06 1.26
0.72 0.83 0.85 0.80 0.76 0.72 0.76 0.86 1.04 1.20 1.30 1.33 1.35 1.42 1.45 1.39 1.39 1.45 1.44 1.49 1.58 1.49 1.26 1.07 1.01 0.93 0.93 0.83 0.83 0.78 0.73 0.63 0.51 0.43 0.38 0.35 0.36 0.40 0.41 0.44 0.53 0.65 0.81
0.66 0.69 0.72 0.74 0.72 0.71 0.73 0.81 0.92 1.11 1.23 1.25 1.25 1.30 1.31 1.30 1.28 1.26 1.33 1.44 1.57 1.56 1.34 1.14 1.16 1.18 1.14 1.03 0.96 0.88 0.75 0.67 0.55 0.47 0.40 0.37 0.34 0.33 0.34 0.37 0.41 0.46 0.55
0.63 0.63 0.64 0.62 0.60 0.61 0.67 0.75 0.85 0.96 1.04 1.06 1.05 1.06 1.01 1.00 1.03 1.02 1.09 1.17 1.26 1.44 1.42 1.29 1.35 1.39 1.37 1.27 1.21 1.13 0.94 0.73 0.61 0.55 0.46 0.43 0.39 0.36 0.34 0.35 0.38 0.44 0.50
0.60 0.59 0.58 0.57 0.61 0.70 0.78 0.83 0.85 0.86 0.87 0.90 0.98 1.04 0.95 0.90 0.90 0.92 0.96 0.94 0.99 1.16 1.28 1.31 1.36 1.45 1.46 1.45 1.32 1.17 1.10 0.97 0.75 0.65 0.57 0.51 0.46 0.42 0.38 0.37 0.38 0.44 0.49
0.54 0.57 0.61 0.64 0.70 0.75 0.81 0.85 0.86 0.83 0.76 0.71 0.76 0.82 0.83 0.80 0.78 0.84 0.87 0.89 0.92 1.05 1.18 1.26 1.34 1.50 1.52 1.46 1.41 1.26 1.23 1.13 1.01 0.85 0.73 0.61 0.59 0.55 0.48 0.43 0.39 0.40 0.48
0.53 0.59 0.65 0.69 0.70 0.68 0.65 0.62 0.63 0.64 0.62 0.58 0.54 0.55 0.60 0.65 0.67 0.69 0.71 0.83 0.91 0.96 1.01 1.06 1.13 1.32 1.55 1.60 1.41 1.31 1.36 1.35 1.22 1.04 0.93 0.74 0.64 0.58 0.54 0.50 0.46 0.42 0.44
0.57 0.61 0.64 0.69 0.70 0.57 0.60 0.52 0.45 0.46 0.50 0.51 0.54 0.54 0.52 0.51 0.52 0.52 0.53 0.60 0.73 0.82 0.86 0.93 1.00 1.16 1.38 1.56 1.61 1.56 1.48 1.40 1.36 1.25 1.14 1.06 0.89 0.79 0.71 0.60 0.50 0.46 0.44
0.65 0.65 0.64 0.64 0.64 0.65 0.65 0.55 0.41 0.37 0.40 0.44 0.48 0.51 0.45 0.42 0.47 0.48 0.50 0.49 0.50 0.58 0.69 0.82 0.89 0.94 1.10 1.32 1.53 1.51 1.57 1.59 1.58 1.56 1.54 1.50 1.26 1.07 0.90 0.76 0.61 0.47 0.43
0.82 0.79 0.74 0.70 0.74 0.71 0.65 0.52 0.43 0.37 0.38 0.41 0.45 0.49 0.48 0.42 0.41 0.48 0.53 0.51 0.46 0.46 0.50 0.58 0.68 0.84 1.04 1.27 1.54 1.54 1.53 1.61 1.67 1.70 1.73 1.74 1.56 1.38 1.17 1.01 0.82 0.62 0.50
0.97 0.88 0.82 0.81 0.79 0.80 0.75 0.59 0.52 0.47 0.48 0.48 0.50 0.50 0.49 0.46 0.46 0.44 0.49 0.53 0.54 0.52 0.50 0.52 0.57 0.75 0.98 1.10 1.32 1.45 1.42 1.43 1.35 1.30 1.42 1.60 1.62 1.57 1.44 1.22 0.99 0.79 0.62
1.12 1.10 1.05 1.03 1.02 1.07 1.11 0.90 0.78 0.70 0.69 0.68 0.72 0.68 0.58 0.51 0.51 0.49 0.50 0.56 0.56 0.56 0.62 0.60 0.57 0.61 0.73 0.91 1.06 1.19 1.29 1.32 1.20 1.08 0.93 1.04 1.23 1.42 1.55 1.42 1.21 1.01 0.86

GEFSMA_prec_meanprecacc_162.txt.gz
Total_Precipitation_Accumulation
1.80 1.78 1.72 1.68 1.64 1.76 1.91 2.05 2.12 2.43 2.55 2.22 1.84 1.74 1.71 1.78 1.69 1.69 1.63 1.59 1.52 1.64 1.99 2.21 2.07 1.85 1.57 1.35 1.21 1.09 0.97 0.86 0.77 0.68 0.69 0.76 0.76 0.71 0.64 0.58 0.52 0.45 0.39
1.92 2.01 1.91 1.86 1.75 1.73 1.89 2.06 2.23 2.67 2.67 2.49 2.05 1.88 1.81 1.77 1.62 1.54 1.63 1.86 1.69 1.58 1.69 1.95 2.15 2.12 1.98 1.73 1.47 1.27 1.12 1.04 0.91 0.69 0.58 0.64 0.68 0.67 0.66 0.65 0.58 0.48 0.41
1.90 1.90 1.74 1.68 1.72 1.85 2.00 2.03 2.22 2.50 2.22 2.20 1.98 1.89 1.71 1.54 1.36 1.32 1.50 1.70 1.60 1.55 1.66 1.77 1.93 2.02 2.10 2.12 1.97 1.75 1.44 1.24 1.07 0.83 0.66 0.61 0.65 0.61 0.59 0.61 0.60 0.53 0.42
1.79 1.92 1.74 1.61 1.92 2.03 2.10 2.26 2.37 2.37 2.28 2.24 2.04 1.80 1.61 1.51 1.23 1.13 1.15 1.23 1.37 1.24 1.50 1.70 1.74 1.78 1.98 2.22 2.40 2.42 2.07 1.68 1.38 1.14 0.92 0.79 0.78 0.72 0.61 0.56 0.58 0.50 0.38
1.88 2.11 2.02 2.07 2.25 2.30 2.28 2.19 2.42 2.40 2.28 2.24 2.03 1.76 1.46 1.30 1.13 0.98 0.91 0.87 0.97 1.04 1.12 1.30 1.44 1.52 1.86 2.36 2.64 2.77 2.67 2.26 1.76 1.49 1.36 1.20 1.12 0.93 0.71 0.61 0.60 0.56 0.44
2.01 2.29 2.11 2.06 2.21 2.32 2.29 2.25 2.21 2.23 2.04 2.02 1.90 1.61 1.29 1.01 0.93 0.81 0.70 0.68 0.72 0.69 0.81 1.00 1.23 1.13 1.45 1.96 2.29 2.60 2.85 2.69 2.18 1.87 1.75 1.65 1.54 1.30 0.89 0.70 0.66 0.63 0.58
1.94 2.20 2.06 2.11 2.12 2.09 2.10 2.15 2.15 1.98 1.67 1.86 1.89 1.47 1.07 0.85 0.81 0.61 0.56 0.57 0.57 0.58 0.71 0.92 1.09 1.10 1.08 1.21 1.51 1.86 2.34 2.56 2.35 2.05 1.93 1.82 1.85 1.70 1.22 0.92 0.81 0.69 0.69
1.99 2.01 2.05 2.00 2.01 2.04 1.96 1.92 1.98 1.81 1.51 1.64 1.73 1.65 1.13 0.87 0.69 0.52 0.58 0.66 0.70 0.75 0.77 0.82 0.96 1.09 1.11 1.32 1.22 1.20 1.61 2.15 2.47 2.40 2.14 1.80 1.67 1.61 1.41 1.27 1.09 0.92 0.89
2.12 2.09 2.02 1.89 1.74 1.66 1.61 1.65 1.72 1.71 1.52 1.47 1.65 1.83 1.44 1.04 0.90 0.69 0.66 0.68 0.79 0.90 0.86 0.88 0.91 1.06 1.16 1.39 1.51 1.35 1.23 1.49 2.05 2.58 2.58 2.11 1.65 1.45 1.41 1.40 1.37 1.22 1.11
1.90 1.70 1.56 1.56 1.51 1.47 1.41 1.31 1.37 1.42 1.34 1.26 1.36 1.48 1.54 1.50 1.40 0.93 0.66 0.62 0.73 0.84 0.92 0.85 0.79 0.90 1.06 1.25 1.48 1.49 1.18 1.08 1.34 2.04 2.45 2.33 1.95 1.56 1.40 1.43 1.68 1.65 1.34
1.53 1.27 1.19 1.22 1.21 1.18 1.15 1.10 1.09 1.07 1.06 1.07 1.19 1.33 1.42 1.47 1.46 1.33 0.96 0.88 0.87 0.80 0.83 0.84 0.86 0.87 0.93 1.14 1.38 1.31 1.28 1.18 1.13 1.28 1.61 1.88 1.97 1.79 1.67 1.81 2.14 2.26 2.00
1.15 0.93 0.84 0.90 0.95 1.01 0.98 0.96 0.97 0.94 0.98 1.09 1.11 1.18 1.31 1.29 1.29 1.37 1.17 1.05 0.99 0.85 0.84 0.89 0.89 0.96 0.96 1.05 1.07 1.25 1.24 1.04 0.96 0.96 1.07 1.28 1.50 1.60 1.65 1.86 2.26 2.60 2.67
0.93 0.82 0.76 0.79 0.84 0.90 0.85 0.84 0.84 0.91 1.03 1.12 1.08 1.11 1.22 1.25 1.27 1.36 1.32 1.21 1.14 1.06 1.08 1.07 0.90 0.82 0.73 0.83 0.92 0.97 0.89 0.78 0.72 0.70 0.74 0.83 0.97 1.18 1.41 1.64 1.97 2.32 2.58
0.91 0.92 0.83 0.78 0.75 0.75 0.72 0.78 0.77 0.82 0.94 1.04 0.98 1.10 1.18 1.23 1.37 1.49 1.52 1.50 1.35 1.22 1.19 1.14 0.97 0.83 0.79 0.81 0.78 0.76 0.71 0.64 0.53 0.51 0.53 0.55 0.63 0.77 0.99 1.18 1.43 1.71 1.94
0.91 0.99 0.92 0.85 0.80 0.79 0.81 0.88 0.91 0.99 1.14 1.20 1.22 1.32 1.33 1.28 1.32 1.39 1.45 1.51 1.56 1.38 1.20 1.13 1.02 0.87 0.87 0.91 0.83 0.75 0.80 0.64 0.46 0.41 0.40 0.40 0.47 0.58 0.64 0.71 0.86 1.06 1.27
0.80 0.93 0.97 0.91 0.85 0.81 0.84 0.92 1.07 1.24 1.36 1.38 1.41 1.47 1.50 1.43 1.43 1.47 1.46 1.52 1.61 1.52 1.29 1.09 1.02 0.94 0.93 0.83 0.83 0.78 0.73 0.63 0.51 0.43 0.38 0.35 0.36 0.40 0.41 0.44 0.53 0.65 0.81
0.77 0.78 0.83 0.86 0.83 0.79 0.81 0.87 0.97 1.16 1.28 1.29 1.30 1.35 1.35 1.34 1.32 1.28 1.34 1.46 1.59 1.59 1.37 1.16 1.18 1.20 1.15 1.03 0.97 0.89 0.76 0.68 0.55 0.47 0.40 0.37 0.34 0.33 0.34 0.37 0.41 0.46 0.55
0.76 0.76 0.77 0.75 0.70 0.70 0.76 0.81 0.92 1.02 1.10 1.12 1.11 1.11 1.05 1.03 1.06 1.04 1.11 1.18 1.28 1.46 1.45 1.32 1.38 1.41 1.39 1.28 1.22 1.14 0.94 0.74 0.62 0.56 0.47 0.43 0.40 0.36 0.34 0.35 0.38 0.44 0.51
0.73 0.72 0.71 0.72 0.74 0.81 0.88 0.91 0.93 0.92 0.92 0.95 1.03 1.10 1.00 0.94 0.93 0.96 0.98 0.96 1.01 1.18 1.30 1.34 1.39 1.48 1.48 1.46 1.33 1.19 1.11 0.99 0.76 0.66 0.58 0.52 0.47 0.43 0.39 0.37 0.39 0.44 0.49
0.67 0.69 0.73 0.76 0.81 0.86 0.91 0.94 0.95 0.90 0.82 0.75 0.80 0.86 0.87 0.85 0.84 0.91 0.93 0.93 0.95 1.08 1.21 1.29 1.37 1.53 1.55 1.48 1.43 1.27 1.25 1.15 1.03 0.86 0.74 0.62 0.60 0.55 0.49 0.43 0.39 0.40 0.48
0.68 0.73 0.78 0.82 0.82 0.80 0.74 0.72 0.73 0.73 0.70 0.64 0.59 0.60 0.65 0.71 0.74 0.77 0.77 0.89 0.97 1.01 1.05 1.11 1.18 1.37 1.58 1.62 1.43 1.33 1.39 1.37 1.24 1.06 0.95 0.76 0.65 0.59 0.55 0.51 0.46 0.42 0.44
0.74 0.77 0.79 0.83 0.84 0.71 0.72 0.63 0.57 0.59 0.63 0.63 0.64 0.63 0.59 0.58 0.58 0.58 0.58 0.64 0.78 0.88 0.94 1.00 1.05 1.21 1.43 1.60 1.65 1.60 1.52 1.43 1.39 1.27 1.17 1.08 0.91 0.80 0.72 0.61 0.50 0.47 0.44
0.87 0.85 0.82 0.80 0.81 0.83 0.81 0.68 0.54 0.50 0.54 0.59 0.64 0.65 0.55 0.50 0.56 0.55 0.56 0.54 0.53 0.62 0.74 0.88 0.95 1.00 1.16 1.39 1.60 1.56 1.62 1.63 1.61 1.59 1.58 1.52 1.28 1.09 0.92 0.77 0.61 0.47 0.44
1.03 1.00 0.94 0.87 0.89 0.87 0.79 0.63 0.55 0.48 0.50 0.53 0.58 0.62 0.61 0.54 0.52 0.59 0.64 0.59 0.54 0.52 0.56 0.63 0.72 0.88 1.09 1.33 1.60 1.59 1.58 1.65 1.70 1.73 1.75 1.76 1.58 1.40 1.19 1.03 0.84 0.64 0.51
1.15 1.07 1.00 0.99 0.95 0.95 0.90 0.72 0.64 0.60 0.65 0.67 0.69 0.66 0.65 0.60 0.60 0.57 0.59 0.61 0.61 0.60 0.57 0.60 0.63 0.80 1.02 1.15 1.36 1.49 1.46 1.47 1.39 1.34 1.46 1.63 1.64 1.60 1.47 1.24 1.01 0.81 0.63
1.23 1.24 1.20 1.17 1.16 1.22 1.27 1.06 0.93 0.83 0.84 0.83 0.89 0.83 0.74 0.66 0.64 0.60 0.58 0.63 0.63 0.63 0.70 0.68 0.64 0.67 0.78 0.96 1.11 1.24 1.35 1.40 1.28 1.15 0.99 1.10 1.27 1.45 1.57 1.43 1.22 1.03 0.88